Regional Weather Roundup
Issued by NWS Jackson, KY

Home | Current Version | Previous Version | Graphics & Text | Print | Product List | Glossary On
Versions: 1 2 3 4 5 6 7 8 9 10 11 12 13 14 15 16 17 18 19 20 21 22 23 24 25 26 27 28 29 30 31 32 33 34 35 36 37 38 39 40 41 42 43 44 45 46 47 48 49 50
155
ASUS43 KJKL 212110
RWRJKL

EAST KENTUCKY HOURLY WEATHER ROUNDUP
NATIONAL WEATHER SERVICE JACKSON KY
400 PM EST SUN JAN 21 2018

NOTE: "FAIR" INDICATES FEW OR NO CLOUDS BELOW 12,000 FEET WITH
NO SIGNIFICANT WEATHER AND/OR OBSTRUCTIONS TO VISIBILITY.

* THESE REPORTS ARE NOT UNDER NWS QUALITY CONTROL AND MAY NOT
  REPORT WEATHER SUCH AS PRECIPITATION AND FOG.

KYZ079-080-083-085-087-088-110-112-115-119-120-212200
...EASTERN KENTUCKY...

CITY           SKY/WX    TMP DP  RH WIND       PRES   REMARKS
JACKSON        CLOUDY    63  46  54 VRB5      30.11F
LONDON         CLOUDY    62  43  49 S5        30.11F
SOMERSET*      CLOUDY    61  45  55 CALM      30.11F
MONTICELLO*    CLOUDY    64  49  57 W12       30.11F
WILLIAMSBURG*  MOCLDY    59  43  55 SE8       30.12S
MIDDLESBORO*   PTSUNNY   58  41  53 S6        30.16F
HARLAN APT*      N/A     57  39  51 CALM      30.16S
PIKE CO APT*   PTSUNNY   58  44  60 SE5       30.13S
BIG SANDY APT*   N/A     63  46  55 SW7       30.12S
MOREHEAD APT*  CLOUDY    59  48  67 S6        30.10S
ASHLAND*       CLOUDY    61  48  62 W5        30.08F
$$

KYZ035-036-041-042-044-050-067-078-099-212200
...CENTRAL KENTUCKY...

CITY           SKY/WX    TMP DP  RH WIND       PRES   REMARKS
MT STERLING*   CLOUDY    59  50  72 SW9       30.09F
FLEMING/MASON* CLOUDY    53  51  95 SW3       30.09S
DANVILLE*      CLOUDY    61  48  63 SW9       30.09S
LEXINGTON      CLOUDY    59  50  72 S6        30.08S
FRANKFORT      CLOUDY    57  49  74 S6        30.05F
LOUISVILLE     CLOUDY    57  51  80 S6        30.05S
LEBANON*       CLOUDY    59  50  72 S6        30.07S
GLASGOW*       CLOUDY    61  51  70 S8        30.08S
BOWLING GREEN  PTSUNNY   64  51  62 S13       30.06F
$$

KYZ091>093-OHZ055-061-077-WVZ005-015-034-035-042-212200
...SOUTHERN OHIO/WEST VIRGINIA...

CITY           SKY/WX    TMP DP  RH WIND       PRES   REMARKS
COVINGTON      CLOUDY    55  50  83 S12       30.03F
COLUMBUS       CLOUDY    50  46  86 SW7       30.05R
DAYTON         CLOUDY    52  48  86 SW9       30.03R
WILMINGTON     CLOUDY    51  48  89 S10       30.04R
HUNTINGTON     CLOUDY    61  46  57 S7        30.08F
CHARLESTON     PTSUNNY   60  45  57 SW7       30.11S
BECKLEY        CLOUDY    50  43  77 SW8       30.16F
BLUEFIELD      CLOUDY    51  39  63 SW5       30.19R
LOGAN CO APT*    N/A     55  43  62 CALM      30.14R
$$

VAZ002-007-008-TNZ017-027-036-066-071-212200
...SOUTHWEST VIRGINIA/EAST TENNESSEE...

CITY           SKY/WX    TMP DP  RH WIND       PRES   REMARKS
WISE*          CLOUDY    54  41  62 SE6       30.17F
JONESVILLE*      N/A     57  39  51 CALM      30.20S
ABINGDON*      CLOUDY    57  41  55 NW5       30.19S
BRISTOL        CLOUDY    58  42  55 CALM      30.18F
MORRISTOWN*    CLOUDY    59  41  51 N6        30.16S
SEVIERVILLE*   CLEAR     61  43  51 CALM      30.16S
KNOXVILLE        N/A     64  44  48 SW7       30.14F
LAFOLLETTE*    CLEAR     61  41  48 SW3       30.18F
OAK RIDGE        N/A     63  42  46 CALM      30.16F
CROSSVILLE     CLOUDY    61  43  51 S6        30.14S
NASHVILLE        N/A     68  48  48 S14       30.07F
$$

...KEY TO REMARKS...
VSB - VISIBILITY IN MILES
WCI - WIND CHILL INDEX
HX  - HEAT INDEX

$$




USA.gov is the U.S. government's official web portal to all federal, state and local government web resources and services.